Location: Unspecified
(52.0000°N, 4.4000°E)
Time: 06:09:57
(UTC+00:00)

Meteor 1-27 Rocket - Pass Details

Date: 14 May 2025
Orbit: 830 x 908 km, 81.3° (Epoch: 22 June)

Event Time Altitude Azimuth Distance (km) Brightness Sun altitude
Exits shadow 23:04:46 34° 167° (SSE) 1,386 4.3 -18.7°
Maximum altitude 23:07:13 65° 98° (E) 934 3.8 -18.8°
Drops below altitude 10° 23:12:45 10° 18° (NNE) 2,467 7.1 -18.9°
Sets 23:15:10 0° 15° (NNE) 3,398 8.1 -18.9°
